Location: M.A.R.S.Observatory
(35.4031°N, 81.5481°W)
Time: 11:13:08
(UTC-04:00)

Daily predictions for brighter satellites

Satellite Brightness Start Highest point End
(mag) Time Altitude Azimuth Time Altitude Azimuth Time Altitude Azimuth
Cosmos 1302 Rocket 4.1 20:24:48 10° S 20:29:50 53° ESE 20:34:53 10° NNE
Meteor 2-3 Rocket 3.8 20:26:47 10° N 20:32:28 68° E 20:38:12 10° SSE
FREGAT/IRIS 3.8 20:32:42 10° S 20:35:36 45° W 20:38:31 10° NNW
Cosmos 1980 Rocket 2.3 20:30:40 10° SSW 20:36:20 89° ESE 20:42:04 10° NNE
Cosmos 1315 Rocket 3.7 20:33:04 10° NNE 20:36:41 30° ENE 20:40:14 10° SE
USA 234 4.3 20:36:28 10° E 20:42:12 34° NNE 20:47:56 10° NNW
SEDSat Delta rocket 4.2 20:40:15 10° SW 20:44:59 37° SSE 20:50:21 10° E
OTV 4 1.3 20:43:59 10° W 20:46:41 38° SSW 20:49:08 12° SE
Cosmos 2227 Rocket 4.2 20:41:59 10° NW 20:46:46 29° WSW 20:51:32 10° SSW
CZ-2D R/B 3.4 20:44:50 10° SSE 20:48:38 56° ENE 20:52:27 10° N
Cosmos 1825 3.8 20:47:50 10° NNE 20:50:27 18° ENE 20:52:20 13° ESE
SL-16 R/B 2.6 20:47:39 10° S 20:52:52 39° ESE 20:58:07 10° NE
Nadezhda 4 Rocket 4.1 20:49:11 10° N 20:55:28 90° SE 21:01:48 10° S
GPS 2-04 Rocket1 4.1 20:55:50 10° W 20:58:47 24° SSW 21:01:34 11° SSE
Cosmos 1634 Rocket 4.0 20:54:13 10° S 21:00:23 63° E 21:06:37 10° NNE
ATLAS 5 CENTAUR R/B 4.3 20:58:48 10° N 21:02:04 15° NE 21:05:27 10° ENE
Cosmos 1707 Rocket 3.6 20:58:10 10° S 21:02:37 89° ENE 21:07:04 10° N
USA 186 1.3 21:02:50 14° SSE 21:04:56 62° ENE 21:07:43 10° N
Cosmos 1092 Rocket 4.0 20:58:52 10° N 21:05:14 77° E 21:11:34 10° S
Helios 1B rocket 2.5 21:02:01 10° NNE 21:06:03 52° E 21:10:02 10° S
Lacrosse 4 Rocket 2.8 21:03:07 10° N 21:06:40 24° ENE 21:08:46 17° E
ALOS 4.0 21:04:16 10° SSW 21:08:30 34° W 21:12:45 10° NNW
SAR-Lupe-4 3.9 21:07:59 18° SE 21:10:24 45° ENE 21:13:51 10° N
Cosmos 1939 Rocket 3.7 21:08:26 19° ESE 21:10:37 32° ENE 21:14:12 10° N
ERBS 3.5 21:08:05 10° NNW 21:11:11 30° NE 21:12:44 21° E
Gblst 52 Del rocket 4.3 21:06:23 10° NW 21:12:11 72° SW 21:16:27 17° SE
Cosmos 1733 Rocket 4.1 21:08:43 10° NNE 21:12:31 27° ENE 21:14:14 21° ESE
Cosmos 1486 Rocket 4.0 21:09:03 10° NNW 21:14:18 85° ENE 21:19:20 11° SSE
Cosmos 1862 Rocket 4.3 21:13:01 17° SE 21:15:48 33° E 21:19:48 10° NNE
Resurs 1-3 4.3 21:15:53 10° S 21:20:10 54° W 21:24:28 10° NNW
Cosmos 1992 Rocket 4.1 21:17:26 10° S 21:22:28 50° ESE 21:27:31 10° NNE
Cosmos 1869 Rocket 4.3 21:19:23 10° NNW 21:23:45 54° W 21:28:06 10° S
Cosmos 2227 4.2 21:18:52 10° NNW 21:24:38 89° W 21:29:15 16° SSE
Cosmos 1408 2.7 21:22:27 10° N 21:26:04 52° E 21:27:28 32° SE
Atlas Centaur 2 3.2 21:20:13 10° SW 21:26:45 42° SSE 21:31:32 22° ESE
SAR-Lupe-1 4.0 21:26:08 28° SSE 21:27:52 67° ENE 21:31:26 10° N
Cosmos 2242 Rocket 3.6 21:29:38 10° S 21:34:10 86° W 21:38:41 10° N
Cosmos 1627 Rocket 4.4 21:33:11 10° N 21:39:24 88° W 21:45:01 13° S
Helios 1A 3.3 21:36:34 17° S 21:39:45 67° WSW 21:43:59 10° NNW
Cosmos 2279 Rocket 3.9 21:35:24 10° S 21:41:37 79° E 21:47:52 10° N
Cosmos 1503 Rocket 3.9 21:40:25 10° NNW 21:45:41 83° ENE 21:48:09 32° SSE
DELTA 2 R/B (1) 4.1 21:42:03 10° WNW 21:47:27 48° SSW 21:49:34 32° SSE
Cosmos 1354 Rocket 3.9 21:44:22 10° NNW 21:49:40 89° WSW 21:52:09 32° SSE
Resurs 01 Rocket 4.0 21:48:06 10° SW 21:51:26 21° W 21:54:47 10° NW
H-2A R/B 3.8 21:52:50 16° ENE 21:52:50 16° ENE 21:55:29 10° NNE
SJ-11-01 4.4 21:51:19 27° S 21:53:51 73° WSW 21:58:31 10° NNW
CZ-4B DEB 3.6 21:54:21 39° SW 21:54:52 43° W 21:57:47 10° NNW
OAO 3 Rocket 3.1 21:50:16 10° W 21:55:12 87° S 21:56:38 47° E
YAOGAN 6 2.5 21:56:56 68° ENE 21:56:56 68° ENE 22:00:28 10° N
Cosmos 1428 Rocket 4.3 21:55:45 10° N 22:01:53 86° E 22:04:53 32° S
FALCON 9 R/B 2.6 21:59:58 10° W 22:00:46 19° W 22:00:46 19° W
SPOT 5 3.6 22:04:10 35° ENE 22:04:10 35° ENE 22:08:19 10° N
Cosmos 968 Rocket 4.2 22:01:57 10° N 22:06:45 37° ENE 22:06:50 37° ENE
COSMOS 2428 4.4 22:10:12 18° ENE 22:10:12 18° ENE 22:12:01 10° NE
Cosmos 2263 Rocket 2.1 22:01:45 10° NNW 22:07:18 67° ENE 22:08:25 54° ESE
Meteor 2-10 Rocket 3.6 22:05:37 34° S 22:08:16 76° E 22:14:05 10° NNE
Cosmos 2322 Rocket 3.4 22:03:49 10° SW 22:09:05 42° WNW 22:14:25 10° N
Envisat 3.9 22:05:47 18° SSW 22:09:12 45° W 22:14:03 10° NNW
Cosmos 1933 4.1 22:11:30 30° SW 22:13:08 50° W 22:17:05 10° N
Sich 1 Rocket 3.8 22:12:40 10° N 22:16:32 56° NE 22:16:32 56° NE
Cosmos 2360 Rocket 2.1 22:15:49 24° SSW 22:19:20 87° ESE 22:25:02 10° NNE
H-2A R/B 4.4 22:23:59 13° NE 22:23:59 13° NE 22:24:51 10° NNE
USA 234 3.3 22:22:52 47° SSE 22:24:49 71° SW 22:31:23 10° NW
Cosmos 1825 4.3 22:22:58 10° NW 22:25:58 22° W 22:27:15 19° WSW
Cosmos 2322 3.6 22:25:27 47° SSW 22:27:12 86° ESE 22:32:56 10° NNE
NOAA 11 4.0 22:28:03 73° SSE 22:28:36 85° ENE 22:34:07 10° NNW
Cosmos 1908 Rocket 3.9 22:25:18 10° N 22:28:49 58° N 22:28:49 58° N
USA 245 4.2 22:30:44 68° E 22:31:00 69° ENE 22:36:21 10° N
SEDSat Delta rocket 3.8 22:25:32 10° WSW 22:30:34 58° SSW 22:30:34 58° SSW
SL-16 R/B 4.3 22:32:24 10° WSW 22:37:03 26° WNW 22:41:43 10° N
SPOT 1/Viking Rocket 4.0 22:40:22 51° NE 22:40:22 51° NE 22:44:39 10° N
MetOp-B 4.1 22:42:09 73° WSW 22:42:18 74° WSW 22:47:40 10° NNW
ERS-1 Rocket 3.7 22:42:09 42° WSW 22:42:51 45° W 22:47:39 10° NNW
Lacrosse 4 Rocket 3.2 22:41:38 10° NW 22:45:08 27° WSW 22:45:08 27° WSW
ATLAS 5 CENTAUR R/B 2.4 22:41:32 10° NNW 22:47:41 75° ENE 22:47:45 75° ENE
ARGOS 3.3 22:52:58 72° NW 22:52:58 72° NW 22:57:54 10° NNW
Milstar 3 3.6 22:47:55 10° W 22:53:10 34° SW 22:53:10 34° SW
SeaSat 1 3.0 22:57:02 56° NNW 22:57:02 56° NNW 23:00:55 10° NNW
Cosmos 2278 Rocket 4.2 22:57:34 10° NNE 23:00:07 16° NE 23:00:07 16° NE
Terra 3.6 23:10:04 26° NNE 23:10:04 26° NNE 23:12:16 10° N
USA 229 DEB 4.1 23:03:50 10° SW 23:10:31 58° NW 23:17:21 10° NNE
USA 229 4.1 23:03:56 10° SW 23:10:37 59° NW 23:17:27 10° NNE
Cosmos 1844 Rocket 3.7 23:05:19 10° N 23:09:04 37° NNE 23:09:04 37° NNE
Atlas Centaur 2 3.4 23:08:31 10° WSW 23:14:12 49° SW 23:14:12 49° SW
Cosmos 2219 Rocket 3.9 23:28:37 24° NNE 23:28:37 24° NNE 23:30:43 10° NNE
H-2A R/B 3.5 23:33:27 33° NW 23:33:27 33° NW 23:36:22 10° NNW
CZ-4C R/B 4.1 23:25:43 10° NNW 23:31:55 30° NE 23:32:09 30° NE
COSMOS 2428 4.1 23:52:07 34° NW 23:52:07 34° NW 23:56:32 10° N
H-2A R/B 4.1 23:14:51 10° W 23:51:33 52° SW 23:51:33 52° SW
